TimeEST,TemperatureF,Dew PointF,Humidity,Sea Level PressureIn,VisibilityMPH,Wind Direction,Wind SpeedMPH,Gust SpeedMPH,PrecipitationIn,Events,Conditions,WindDirDegrees,DateUTC
12:15 AM,62.6,60.8,94,29.75,10.0,SW,6.9,-,N/A,,Overcast,230,2012-12-11 05:15:00
12:35 AM,62.6,60.8,94,29.76,10.0,SW,8.1,-,N/A,,Overcast,220,2012-12-11 05:35:00
12:55 AM,60.8,60.8,100,29.75,10.0,SW,6.9,-,N/A,,Mostly Cloudy,230,2012-12-11 05:55:00
1:15 AM,60.8,60.8,100,29.75,10.0,SW,8.1,-,N/A,,Mostly Cloudy,230,2012-12-11 06:15:00
1:35 AM,60.8,60.8,100,29.75,10.0,WSW,8.1,-,N/A,,Overcast,240,2012-12-11 06:35:00
1:55 AM,60.8,60.8,100,29.75,10.0,WSW,9.2,-,N/A,,Mostly Cloudy,240,2012-12-11 06:55:00
2:15 AM,60.8,59.0,94,29.75,10.0,WSW,8.1,-,N/A,,Scattered Clouds,240,2012-12-11 07:15:00
2:35 AM,60.8,59.0,94,29.75,10.0,WSW,4.6,-,N/A,,Scattered Clouds,240,2012-12-11 07:35:00
2:55 AM,59.0,57.2,94,29.76,10.0,WSW,5.8,-,N/A,,Clear,250,2012-12-11 07:55:00
3:15 AM,59.0,55.4,88,29.77,10.0,WSW,5.8,-,N/A,,Clear,250,2012-12-11 08:15:00
3:35 AM,57.2,55.4,94,29.78,10.0,WSW,5.8,-,N/A,,Scattered Clouds,240,2012-12-11 08:35:00
3:55 AM,59.0,53.6,82,29.78,10.0,SW,8.1,-,N/A,,Mostly Cloudy,230,2012-12-11 08:55:00
4:15 AM,59.0,51.8,77,29.78,10.0,SW,6.9,-,N/A,,Mostly Cloudy,230,2012-12-11 09:15:00
4:35 AM,57.2,50.0,77,29.79,10.0,West,6.9,-,N/A,,Scattered Clouds,280,2012-12-11 09:35:00
4:55 AM,53.6,46.4,77,29.80,10.0,North,8.1,-,N/A,,Clear,350,2012-12-11 09:55:00
5:15 AM,51.8,46.4,82,29.81,10.0,North,5.8,-,N/A,,Clear,350,2012-12-11 10:15:00
5:35 AM,50.0,44.6,82,29.82,10.0,NNW,4.6,-,N/A,,Clear,340,2012-12-11 10:35:00
5:55 AM,50.0,44.6,82,29.83,10.0,NNW,3.5,-,N/A,,Clear,340,2012-12-11 10:55:00
6:15 AM,50.0,42.8,76,29.85,10.0,NNW,5.8,-,N/A,,Clear,340,2012-12-11 11:15:00
6:35 AM,48.2,42.8,82,29.85,10.0,NNW,6.9,-,N/A,,Clear,340,2012-12-11 11:35:00
6:55 AM,48.2,42.8,82,29.86,10.0,NNW,5.8,-,N/A,,Clear,330,2012-12-11 11:55:00
7:15 AM,46.4,41.0,81,29.87,10.0,NNW,4.6,-,N/A,,Clear,330,2012-12-11 12:15:00
7:35 AM,46.4,41.0,81,29.89,10.0,Calm,Calm,-,N/A,,Clear,0,2012-12-11 12:35:00
7:55 AM,46.4,41.0,81,29.90,10.0,Calm,Calm,-,N/A,,Clear,0,2012-12-11 12:55:00
8:15 AM,46.4,41.0,81,29.91,10.0,North,4.6,-,N/A,,Clear,350,2012-12-11 13:15:00
8:35 AM,46.4,41.0,81,29.91,10.0,NNW,3.5,-,N/A,,Clear,340,2012-12-11 13:35:00
8:55 AM,46.4,39.2,76,29.93,10.0,NNW,3.5,-,N/A,,Clear,340,2012-12-11 13:55:00
9:15 AM,46.4,39.2,76,29.94,10.0,NW,5.8,-,N/A,,Clear,320,2012-12-11 14:15:00
9:35 AM,50.0,39.2,66,29.95,10.0,NNW,3.5,-,N/A,,Clear,340,2012-12-11 14:35:00
9:55 AM,50.0,39.2,66,29.96,10.0,NNW,3.5,-,N/A,,Clear,340,2012-12-11 14:55:00
10:15 AM,51.8,39.2,62,29.96,10.0,NNW,4.6,-,N/A,,Clear,340,2012-12-11 15:15:00
10:35 AM,51.8,39.2,62,29.97,10.0,North,6.9,-,N/A,,Clear,360,2012-12-11 15:35:00
10:55 AM,51.8,37.4,58,29.97,10.0,North,5.8,-,N/A,,Clear,10,2012-12-11 15:55:00
11:15 AM,53.6,37.4,54,29.97,10.0,NNW,5.8,-,N/A,,Clear,330,2012-12-11 16:15:00
11:35 AM,53.6,37.4,54,29.97,10.0,North,4.6,-,N/A,,Clear,10,2012-12-11 16:35:00
11:55 AM,53.6,37.4,54,29.96,10.0,North,3.5,-,N/A,,Clear,350,2012-12-11 16:55:00
12:15 PM,55.4,37.4,51,29.97,10.0,NNW,3.5,-,N/A,,Clear,340,2012-12-11 17:15:00
12:35 PM,53.6,37.4,54,29.95,10.0,NE,4.6,-,N/A,,Clear,50,2012-12-11 17:35:00
12:55 PM,55.4,39.2,54,29.96,10.0,NE,3.5,-,N/A,,Clear,40,2012-12-11 17:55:00
1:15 PM,55.4,39.2,54,29.96,10.0,NE,3.5,-,N/A,,Clear,50,2012-12-11 18:15:00
1:35 PM,55.4,39.2,54,29.97,10.0,North,4.6,-,N/A,,Clear,10,2012-12-11 18:35:00
1:55 PM,55.4,39.2,54,29.96,10.0,North,3.5,-,N/A,,Clear,10,2012-12-11 18:55:00
2:15 PM,55.4,39.2,54,29.96,10.0,North,5.8,-,N/A,,Clear,360,2012-12-11 19:15:00
2:35 PM,55.4,37.4,51,29.97,10.0,North,3.5,-,N/A,,Clear,10,2012-12-11 19:35:00
2:55 PM,55.4,39.2,54,29.97,10.0,Calm,Calm,-,N/A,,Clear,0,2012-12-11 19:55:00
3:15 PM,55.4,37.4,51,29.98,10.0,Calm,Calm,-,N/A,,Clear,0,2012-12-11 20:15:00
3:35 PM,55.4,37.4,51,29.98,10.0,Calm,Calm,-,N/A,,Clear,0,2012-12-11 20:35:00
3:55 PM,55.4,39.2,54,29.99,10.0,Calm,Calm,-,N/A,,Clear,0,2012-12-11 20:55:00
4:15 PM,55.4,37.4,51,30.00,10.0,Calm,Calm,-,N/A,,Clear,0,2012-12-11 21:15:00
4:35 PM,55.4,39.2,54,30.00,10.0,North,5.8,-,N/A,,Clear,10,2012-12-11 21:35:00
4:55 PM,55.4,39.2,54,30.01,10.0,NNE,3.5,-,N/A,,Clear,20,2012-12-11 21:55:00
5:15 PM,53.6,39.2,58,30.01,10.0,North,4.6,-,N/A,,Clear,10,2012-12-11 22:15:00
5:35 PM,53.6,37.4,54,30.01,10.0,NNW,6.9,-,N/A,,Clear,340,2012-12-11 22:35:00
5:55 PM,51.8,35.6,54,30.02,10.0,NNW,8.1,-,N/A,,Clear,340,2012-12-11 22:55:00
6:15 PM,51.8,35.6,54,30.03,10.0,NNW,6.9,-,N/A,,Clear,340,2012-12-11 23:15:00
6:35 PM,50.0,35.6,58,30.04,10.0,NNW,5.8,-,N/A,,Clear,340,2012-12-11 23:35:00
6:55 PM,50.0,35.6,58,30.04,10.0,North,8.1,-,N/A,,Clear,350,2012-12-11 23:55:00
7:15 PM,50.0,35.6,58,30.05,10.0,North,8.1,-,N/A,,Clear,360,2012-12-12 00:15:00
7:35 PM,50.0,35.6,58,30.05,10.0,North,9.2,-,N/A,,Clear,360,2012-12-12 00:35:00
7:55 PM,50.0,35.6,58,30.05,10.0,North,9.2,-,N/A,,Clear,360,2012-12-12 00:55:00
8:15 PM,48.2,35.6,62,30.06,10.0,North,6.9,-,N/A,,Clear,360,2012-12-12 01:15:00
8:35 PM,48.2,35.6,62,30.07,10.0,NNE,8.1,-,N/A,,Clear,20,2012-12-12 01:35:00
8:55 PM,48.2,35.6,62,30.07,10.0,North,9.2,-,N/A,,Mostly Cloudy,10,2012-12-12 01:55:00
9:15 PM,48.2,35.6,62,30.08,10.0,North,10.4,-,N/A,,Mostly Cloudy,10,2012-12-12 02:15:00
9:35 PM,46.4,35.6,66,30.09,10.0,North,9.2,-,N/A,,Scattered Clouds,10,2012-12-12 02:35:00
9:55 PM,46.4,35.6,66,30.09,10.0,North,11.5,-,N/A,,Scattered Clouds,10,2012-12-12 02:55:00
10:15 PM,46.4,35.6,66,30.10,10.0,NNE,10.4,-,N/A,,Scattered Clouds,20,2012-12-12 03:15:00
10:35 PM,46.4,35.6,66,30.10,10.0,NNE,8.1,-,N/A,,Clear,20,2012-12-12 03:35:00
10:55 PM,46.4,35.6,66,30.10,10.0,NE,8.1,-,N/A,,Clear,40,2012-12-12 03:55:00
11:15 PM,46.4,35.6,66,30.11,10.0,NNE,9.2,-,N/A,,Clear,30,2012-12-12 04:15:00
11:35 PM,46.4,35.6,66,30.13,10.0,NNE,6.9,-,N/A,,Clear,30,2012-12-12 04:35:00
11:55 PM,46.4,35.6,66,30.13,10.0,NNE,8.1,-,N/A,,Clear,20,2012-12-12 04:55:00